User: anonymous   Login
Location: Stoke Bliss
(52.2667°N, 2.5167°W)
Time: 06:33:00
(UTC+00:00)
Language:

Cosmos 2278 Rocket - Orbit

View from above orbital plane
View from above orbital plane
View from above satellite
View from above satellite

Ground track
Ground track

The orbit data is extracted from the following two-line orbital elements,

1 23088U 94023B   21134.81088550 -.00000103  00000-0 -28570-4 0  9997
2 23088  70.9992 165.6235 0000842  88.0162 272.1057 14.14689529397446
Epoch (UTC): 14 May 2021 19:27:40
Eccentricity: 0.0000842
inclination: 70.9992°
perigee height: 843 km
apogee height: 844 km
right ascension of ascending node: 165.6235°
argument of perigee: 88.0162°
revolutions per day: 14.14689529
mean anomaly at epoch: 272.1057°
orbit number at epoch: 39744

The dashed part of the orbit path shows where the satellite is in the earth's shadow,  

DLR